Location: Hilton Head Island
(32.2163°N, 80.7526°W)
Time: 21:48:11
(UTC-04:00)

Explorer 7 - Pass Details

Date: 24 February 2026
Orbit: 430 x 541 km, 50.2° (Epoch: 12 March)

Event Time Altitude Azimuth Distance (km) Brightness Sun altitude
Rises 13:33:54 0° 280° (W) 2,392 10.2 46.3°
Reaches altitude 10° 13:37:29 10° 319° (NW) 1,540 9.0 46.0°
Maximum altitude 13:38:25 11° 335° (NNW) 1,495 8.9 46.0°
Drops below altitude 10° 13:39:22 10° 351° (N) 1,551 8.9 45.9°
Sets 13:43:02 0° 30° (NNE) 2,449 9.7 45.6°
